Location: Unspecified
(52.1971°N, 0.0000°E)
Time: 17:43:27
(UTC+00:00)

ISS - Pass Details

Date: 21 May 2019
Orbit: 408 x 418 km, 51.6° (Epoch: 18 June)

Event Time Altitude Azimuth Distance (km) Brightness Sun altitude
Rises 22:59:46 0° 271° (W) 2,361 0.3 -16.5°
Reaches altitude 10° 23:01:52 10° 271° (W) 1,499 -0.8 -16.5°
Maximum altitude 23:05:14 82° 185° (S) 428 -3.9 -16.7°
Enters shadow 23:08:13 13° 96° (E) 1,340 -1.4 -16.8°
